Location: Unspecified
(0.0000°N, 0.0000°E)
Time: 13:41:41
(UTC+00:00)

LightSail 2 - Pass Details

Date: 26 November 2019
Orbit: 696 x 730 km, 24.0° (Epoch: 08 December)

Event Time Altitude Azimuth Distance (km) Brightness Sun altitude
Rises 18:56:43 0° 282° (WNW) 3,073 9.4 -16.2°
Reaches altitude 10° 19:00:14 10° 306° (NW) 2,146 8.0 -17.0°
Maximum altitude 19:02:58 15° 339° (NNW) 1,852 7.3 -17.6°
Enters shadow 19:05:14 11° 7° (N) 2,050 7.2 -18.1°
